COSMOS 2251 DEB, 34062

Orbit data source: Space-Track

COSMOS 2251 DEB, 34062 is space debris in LEO originally from a launch on Wed, 16 Jun 1993 UTC launched from the Plesetsk Missile And Space Complex (PKMTR). The debris from Iridium 33, an American commercial communications satellite, has been tracked extensively since its accidental collision with the defunct Russian satellite Cosmos 2251 in 2009. This event, occurring at high speed in low Earth orbit (LEO), generated thousands of pieces of space debris, significantly increasing the risk of further collisions. The Iridium 33 debris cloud has impacted space traffic management and orbital debris mitigation strategies, making it a subject of ongoing study in space situational awareness.

Loading next visibility...
Identifier
34062, 1993-036JZ
Orbit
LEO
Country
Flag of CISCIS
Related business
Manufacturer
Unknown
Mission
Spacecraft
Bus & Motor
Unknown
Mass
Unknown
Launch date (UTC)
1993-06-16 (33 years ago)
Launch vehicle
Unknown
Launch site
Plesetsk Missile And Space Complex (PKMTR)
Object type
Payload
Rocket body
Debris
Shape & HBR
Unknown shape, 0.073 m
Radar Cross Section
Medium (>0.1 m² and <1 m²)

Expand to show TLE details & history
Last TLE update: 9 hours ago

TLE from 9 hours ago
0 COSMOS 2251 DEB
1 34062U 93036JZ  26266.45548546  .00008070  00000-0  88222-3 0  9999
2 34062  74.0253 294.1073 0069979 299.1304 189.8300 14.86192177928163
Epoch: 2026-09-23T10:55Z
TLE epoch observation values (Epoch: 2026-09-23T10:55:53.943Z)
Latitude
48.61017°
Longitude
-71.02264°
Altitude
665.355 km
Speed
7.503 km/s
True Right ascension
06h 21m 02s
True Declination
48° 26' 14"
Sunlit
Object was in daylight at epoch
Visualization orbit readout
Latitude
Unknown
Longitude
Unknown
Altitude
Unknown
Speed
Unknown
Apparent Right ascension
Unknown
Apparent Declination
Unknown
Sunlit
N/A
Visualization observer readout
Local Sidereal Time
12:56:51
Azimuth
Unknown
Elevation
Unknown
Doppler factor
Unknown
Orbital elements
Apogee altitude
656.3 km
Perigee altitude
558.532 km
Semi-major axis
6,985.553 km
Eccentricity
0.007
Inclination
74.0253°
RAAN
294.1073°
Arg. of periapsis
299.1304°
True anomaly
189.69427°
Mean anomaly
189.83°
Eccentric anomaly
189.76202°
Mean motion
3.71742 °/min
Orbital period
96.84 mins
BSTAR
0.00088222

Documentation

Showing up to 5 results
|